,,,PA_Meas_PMT16A,,PR_Meas_QMR101_102,,RH_Meas_QMH101,,SR_Meas_QMS101,,TA_Meas_QMH101,,GenWind,,GenWind,
date,time,status,PA,status,PR,status,RH,status,SR,status,TA,status,DirAvg,status,SpdAvg,
2011-02-08, 00:00:04,VALID,1008.8,VALID,0,VALID,100.782,VALID,0,VALID,23.3805,VALID,305,VALID,0,
2011-02-08, 00:01:04,VALID,1008.81,VALID,0,VALID,100.805,VALID,0.105969,VALID,23.3805,VALID,305,VALID,0.126953,
2011-02-08, 00:02:04,VALID,1008.81,VALID,0,VALID,100.881,VALID,0,VALID,23.361,VALID,305,VALID,0.149219,
2011-02-08, 00:03:04,VALID,1008.82,VALID,0,VALID,100.919,VALID,0.105969,VALID,23.361,VALID,315,VALID,0.673437,
2011-02-08, 00:04:04,VALID,1008.77,VALID,0,VALID,100.82,VALID,0,VALID,23.361,VALID,315,VALID,0.287891,
2011-02-08, 00:05:04,VALID,1008.78,VALID,0,VALID,100.713,VALID,0.105969,VALID,23.3805,VALID,319,VALID,0.417188,
2011-02-08, 00:06:04,VALID,1008.75,VALID,0,VALID,100.599,VALID,0.105969,VALID,23.4,VALID,316,VALID,0.236719,
2011-02-08, 00:07:04,VALID,1008.74,VALID,0,VALID,100.446,VALID,0.105969,VALID,23.4194,VALID,316,VALID,0.458984,
2011-02-08, 00:08:04,VALID,1008.75,VALID,0,VALID,100.408,VALID,0.105969,VALID,23.4389,VALID,258,VALID,0.463672,
2011-02-08, 00:09:04,VALID,1008.73,VALID,0,VALID,100.119,VALID,0.105969,VALID,23.4779,VALID,294,VALID,0.517187,
2011-02-08, 00:10:04,VALID,1008.74,VALID,0,VALID,99.9431,VALID,0.105969,VALID,23.5169,VALID,286,VALID,0.00585938,
2011-02-08, 00:11:04,VALID,1008.74,VALID,0,VALID,99.7449,VALID,0.105969,VALID,23.5558,VALID,293,VALID,0.435937,
2011-02-08, 00:12:04,VALID,1008.73,VALID,0,VALID,99.5313,VALID,0.105969,VALID,23.5753,VALID,293,VALID,0.392969,
2011-02-08, 00:13:04,VALID,1008.69,VALID,0,VALID,99.4169,VALID,0,VALID,23.6161,VALID,291,VALID,0.376563,
2011-02-08, 00:14:04,VALID,1008.73,VALID,0,VALID,99.2797,VALID,0,VALID,23.6356,VALID,287,VALID,0.486328,
2011-02-08, 00:15:04,VALID,1008.71,VALID,0,VALID,99.0738,VALID,0,VALID,23.6338,VALID,290,VALID,0.251953,
2011-02-08, 00:16:04,VALID,1008.71,VALID,0,VALID,99.0433,VALID,0.105969,VALID,23.6745,VALID,294,VALID,0.305078,
2011-02-08, 00:17:04,VALID,1008.71,VALID,0,VALID,99.0052,VALID,0.105969,VALID,23.6727,VALID,294,VALID,0.271094,
2011-02-08, 00:18:04,VALID,1008.74,VALID,0,VALID,98.9899,VALID,0.105969,VALID,23.6532,VALID,294,VALID,0.166016,
2011-02-08, 00:19:04,VALID,1008.75,VALID,0,VALID,99.1424,VALID,0.105969,VALID,23.655,VALID,294,VALID,0.291797,
2011-02-08, 00:20:04,VALID,1008.74,VALID,0,VALID,99.0433,VALID,0.105969,VALID,23.6338,VALID,294,VALID,0.370313,
2011-02-08, 00:21:04,VALID,1008.77,VALID,0,VALID,99.0738,VALID,0.105969,VALID,23.655,VALID,317,VALID,0.278906,
2011-02-08, 00:22:04,VALID,1008.74,VALID,0,VALID,99.1424,VALID,0.105969,VALID,23.655,VALID,308,VALID,0.173438,
2011-02-08, 00:23:04,VALID,1008.72,VALID,0,VALID,99.2492,VALID,0.105969,VALID,23.6143,VALID,308,VALID,0.0789063,
2011-02-08, 00:24:04,VALID,1008.73,VALID,0,VALID,99.2949,VALID,0.105969,VALID,23.5948,VALID,308,VALID,0.240234,
2011-02-08, 00:25:04,VALID,1008.74,VALID,0,VALID,99.4398,VALID,0.105969,VALID,23.5753,VALID,308,VALID,0.33125,
2011-02-08, 00:26:04,VALID,1008.73,VALID,0,VALID,99.3864,VALID,0.105969,VALID,23.5558,VALID,294,VALID,0.0824219,
2011-02-08, 00:27:04,VALID,1008.72,VALID,0,VALID,99.5466,VALID,0.105969,VALID,23.5753,VALID,294,VALID,0.254687,
2011-02-08, 00:28:04,VALID,1008.7,VALID,0,VALID,99.5618,VALID,0.105969,VALID,23.5363,VALID,294,VALID,0.145313,
2011-02-08, 00:29:04,VALID,1008.7,VALID,0,VALID,99.5923,VALID,0.105969,VALID,23.5558,VALID,294,VALID,0.256641,
2011-02-08, 00:30:04,VALID,1008.66,VALID,0,VALID,99.6686,VALID,0,VALID,23.5169,VALID,294,VALID,0,
2011-02-08, 00:31:04,VALID,1008.65,VALID,0,VALID,99.7601,VALID,0.105969,VALID,23.5169,VALID,330,VALID,0.284766,
2011-02-08, 00:32:04,VALID,1008.65,VALID,0,VALID,99.844,VALID,0.105969,VALID,23.5169,VALID,335,VALID,0.579297,
2011-02-08, 00:33:04,VALID,1008.63,VALID,0,VALID,99.661,VALID,0.105969,VALID,23.4974,VALID,305,VALID,0.705078,
2011-02-08, 00:34:04,VALID,1008.59,VALID,0,VALID,99.7296,VALID,0.105969,VALID,23.4974,VALID,299,VALID,0.279297,
2011-02-08, 00:35:04,VALID,1008.58,VALID,0,VALID,99.7296,VALID,0.105969,VALID,23.4974,VALID,299,VALID,0.163672,
2011-02-08, 00:36:04,VALID,1008.53,VALID,0,VALID,99.844,VALID,0.105969,VALID,23.4779,VALID,300,VALID,0.409375,
2011-02-08, 00:37:04,VALID,1008.52,VALID,0,VALID,99.8287,VALID,0.105969,VALID,23.4779,VALID,343,VALID,0.324609,
2011-02-08, 00:38:04,VALID,1008.51,VALID,0,VALID,99.8592,VALID,0.105969,VALID,23.4584,VALID,343,VALID,0.365625,
2011-02-08, 00:39:04,VALID,1008.47,VALID,0,VALID,99.9813,VALID,0,VALID,23.4602,VALID,343,VALID,0.308984,
2011-02-08, 00:40:04,VALID,1008.45,VALID,0,VALID,100.103,VALID,0.105969,VALID,23.4194,VALID,314,VALID,0.297656,
2011-02-08, 00:41:04,VALID,1008.43,VALID,0,VALID,100.134,VALID,0.105969,VALID,23.4407,VALID,349,VALID,0.324219,
2011-02-08, 00:42:04,VALID,1008.42,VALID,0,VALID,100.088,VALID,0.105969,VALID,23.4,VALID,335,VALID,0.0871094,
2011-02-08, 00:43:04,VALID,1008.4,VALID,0,VALID,100.103,VALID,0.105969,VALID,23.4194,VALID,335,VALID,0.126563,
2011-02-08, 00:44:04,VALID,1008.38,VALID,0,VALID,100.164,VALID,0.105969,VALID,23.4212,VALID,335,VALID,0.157031,
2011-02-08, 00:45:04,VALID,1008.38,VALID,0,VALID,100.218,VALID,0.105969,VALID,23.3805,VALID,335,VALID,0.433984,
2011-02-08, 00:46:04,VALID,1008.33,VALID,0,VALID,100.218,VALID,0,VALID,23.3805,VALID,335,VALID,0.273828,
2011-02-08, 00:47:04,VALID,1008.33,VALID,0,VALID,100.172,VALID,0.105969,VALID,23.4,VALID,328,VALID,0.723828,
2011-02-08, 00:48:04,VALID,1008.3,VALID,0,VALID,100.111,VALID,0.105969,VALID,23.4,VALID,357,VALID,0.713281,
2011-02-08, 00:49:04,VALID,1008.32,VALID,0,VALID,100.058,VALID,0.105969,VALID,23.4,VALID,4,VALID,0.512109,
2011-02-08, 00:50:04,VALID,1008.32,VALID,0,VALID,100.065,VALID,0,VALID,23.3805,VALID,356,VALID,0.575391,
2011-02-08, 00:51:04,VALID,1008.31,VALID,0,VALID,100.096,VALID,0.105969,VALID,23.361,VALID,336,VALID,0.286719,
2011-02-08, 00:52:04,VALID,1008.32,VALID,0,VALID,100.18,VALID,0,VALID,23.361,VALID,338,VALID,0.370313,
2011-02-08, 00:53:04,VALID,1008.27,VALID,0,VALID,100.263,VALID,0.105969,VALID,23.3628,VALID,338,VALID,0.0472656,
2011-02-08, 00:54:04,VALID,1008.28,VALID,0,VALID,100.294,VALID,0.105969,VALID,23.3628,VALID,338,VALID,0.332031,
2011-02-08, 00:55:04,VALID,1008.25,VALID,0,VALID,100.286,VALID,0.105969,VALID,23.361,VALID,348,VALID,0.194531,
2011-02-08, 00:56:04,VALID,1008.23,VALID,0,VALID,100.241,VALID,0.105969,VALID,23.361,VALID,348,VALID,0.422266,
2011-02-08, 00:57:04,VALID,1008.22,VALID,0,VALID,100.187,VALID,0.105969,VALID,23.3415,VALID,348,VALID,0.333203,
2011-02-08, 00:58:04,VALID,1008.2,VALID,0,VALID,100.263,VALID,0,VALID,23.3628,VALID,347,VALID,0.430078,
2011-02-08, 00:59:04,VALID,1008.21,VALID,0,VALID,100.309,VALID,0,VALID,23.322,VALID,347,VALID,0.351563,
2011-02-08, 01:00:04,VALID,1008.22,VALID,0,VALID,100.271,VALID,0.105969,VALID,23.3415,VALID,336,VALID,0.402344,
2011-02-08, 01:01:04,VALID,1008.2,VALID,0,VALID,100.279,VALID,0.105969,VALID,23.3415,VALID,333,VALID,0.474219,
2011-02-08, 01:02:04,VALID,1008.22,VALID,0,VALID,100.324,VALID,0,VALID,23.3415,VALID,333,VALID,0.0949219,
2011-02-08, 01:03:04,VALID,1008.21,VALID,0,VALID,100.355,VALID,0.105969,VALID,23.322,VALID,333,VALID,0,
2011-02-08, 01:04:04,VALID,1008.21,VALID,0,VALID,100.385,VALID,0.105969,VALID,23.3026,VALID,333,VALID,0,
2011-02-08, 01:05:04,VALID,1008.22,VALID,0,VALID,100.614,VALID,0,VALID,23.2441,VALID,333,VALID,0,
2011-02-08, 01:06:04,VALID,1008.23,VALID,0,VALID,100.866,VALID,0,VALID,23.2246,VALID,333,VALID,0,
2011-02-08, 01:07:04,VALID,1008.22,VALID,0,VALID,101.049,VALID,0.105969,VALID,23.2051,VALID,333,VALID,0,
2011-02-08, 01:08:04,VALID,1008.21,VALID,0,VALID,101.24,VALID,0.105969,VALID,23.1874,VALID,333,VALID,0,
2011-02-08, 01:09:04,VALID,1008.2,VALID,0,VALID,101.377,VALID,0,VALID,23.1485,VALID,333,VALID,0,
2011-02-08, 01:10:04,VALID,1008.19,VALID,0,VALID,101.491,VALID,0.105969,VALID,23.1077,VALID,333,VALID,0.329688,
2011-02-08, 01:11:04,VALID,1008.19,VALID,0,VALID,101.59,VALID,0,VALID,23.09,VALID,333,VALID,0.0140625,
2011-02-08, 01:12:04,VALID,1008.2,VALID,0,VALID,101.667,VALID,0,VALID,23.0688,VALID,333,VALID,0.25625,
2011-02-08, 01:13:04,VALID,1008.21,VALID,0,VALID,101.697,VALID,0.105969,VALID,23.0493,VALID,333,VALID,0.331641,
2011-02-08, 01:14:04,VALID,1008.22,VALID,0,VALID,101.758,VALID,0.105969,VALID,23.0103,VALID,333,VALID,0.224219,
2011-02-08, 01:15:04,VALID,1008.21,VALID,0,VALID,101.888,VALID,0,VALID,23.0103,VALID,333,VALID,0.138281,
2011-02-08, 01:16:04,VALID,1008.19,VALID,0,VALID,101.994,VALID,0.105969,VALID,22.9714,VALID,333,VALID,0.208984,
2011-02-08, 01:17:04,VALID,1008.2,VALID,0,VALID,102.01,VALID,0.105969,VALID,22.9519,VALID,333,VALID,0.405469,
2011-02-08, 01:18:04,VALID,1008.2,VALID,0,VALID,102.078,VALID,0.105969,VALID,22.9129,VALID,333,VALID,0.392188,
2011-02-08, 01:19:04,VALID,1008.21,VALID,0,VALID,102.139,VALID,0.105969,VALID,22.9342,VALID,333,VALID,0.508594,
2011-02-08, 01:20:04,VALID,1008.15,VALID,0,VALID,102.231,VALID,0.105969,VALID,22.8935,VALID,333,VALID,0.267969,
2011-02-08, 01:21:04,VALID,1008.15,VALID,0,VALID,102.307,VALID,0.105969,VALID,22.8935,VALID,333,VALID,0.228125,
2011-02-08, 01:22:04,VALID,1008.14,VALID,0,VALID,102.338,VALID,0.105969,VALID,22.8545,VALID,333,VALID,0.196875,
2011-02-08, 01:23:04,VALID,1008.1,VALID,0,VALID,102.406,VALID,0.105969,VALID,22.835,VALID,333,VALID,0.192188,
2011-02-08, 01:24:04,VALID,1008.12,VALID,0,VALID,102.475,VALID,0.105969,VALID,22.8155,VALID,333,VALID,0.0105469,
2011-02-08, 01:25:04,VALID,1008.1,VALID,0,VALID,102.505,VALID,0.105969,VALID,22.7961,VALID,333,VALID,0,
2011-02-08, 01:26:04,VALID,1008.05,VALID,0,VALID,102.582,VALID,0.105969,VALID,22.7766,VALID,333,VALID,0,
2011-02-08, 01:27:04,VALID,1008.04,VALID,0,VALID,102.62,VALID,0.105969,VALID,22.7164,VALID,333,VALID,0,
2011-02-08, 01:28:04,VALID,1008,VALID,0,VALID,102.704,VALID,0,VALID,22.7376,VALID,333,VALID,0,
2011-02-08, 01:29:04,VALID,1008,VALID,0,VALID,102.788,VALID,0.105969,VALID,22.7182,VALID,333,VALID,0,
2011-02-08, 01:30:04,VALID,1007.99,VALID,0,VALID,102.856,VALID,0.105969,VALID,22.6987,VALID,333,VALID,0,
2011-02-08, 01:31:04,VALID,1007.98,VALID,0,VALID,102.94,VALID,0.105969,VALID,22.6597,VALID,333,VALID,0,
2011-02-08, 01:32:04,VALID,1007.95,VALID,0,VALID,102.993,VALID,0.105969,VALID,22.6809,VALID,333,VALID,0,
2011-02-08, 01:33:04,VALID,1007.93,VALID,0,VALID,103.032,VALID,0,VALID,22.6208,VALID,333,VALID,0,
2011-02-08, 01:34:04,VALID,1007.94,VALID,0,VALID,103.123,VALID,0.105969,VALID,22.6208,VALID,333,VALID,0,
2011-02-08, 01:35:04,VALID,1007.92,VALID,0,VALID,103.161,VALID,0.105969,VALID,22.6013,VALID,333,VALID,0,
2011-02-08, 01:36:04,VALID,1007.91,VALID,0,VALID,103.192,VALID,0.105969,VALID,22.5818,VALID,333,VALID,0,
2011-02-08, 01:37:04,VALID,1007.92,VALID,0,VALID,103.215,VALID,0.105969,VALID,22.5818,VALID,333,VALID,0,
2011-02-08, 01:38:04,VALID,1007.92,VALID,0,VALID,103.276,VALID,0.105969,VALID,22.5623,VALID,333,VALID,0,
2011-02-08, 01:39:04,VALID,1007.94,VALID,0,VALID,103.253,VALID,0.105969,VALID,22.5818,VALID,333,VALID,0,
2011-02-08, 01:40:04,VALID,1007.92,VALID,0,VALID,103.298,VALID,0.105969,VALID,22.5429,VALID,333,VALID,0,
2011-02-08, 01:41:04,VALID,1007.9,VALID,0,VALID,103.321,VALID,0,VALID,22.5835,VALID,333,VALID,0,
2011-02-08, 01:42:04,VALID,1007.94,VALID,0,VALID,103.344,VALID,0.105969,VALID,22.5429,VALID,333,VALID,0,
2011-02-08, 01:43:04,VALID,1007.91,VALID,0,VALID,103.382,VALID,0,VALID,22.5429,VALID,333,VALID,0,
2011-02-08, 01:44:04,VALID,1007.9,VALID,0,VALID,103.382,VALID,0,VALID,22.5234,VALID,333,VALID,0,
2011-02-08, 01:45:04,VALID,1007.87,VALID,0,VALID,103.382,VALID,0.105969,VALID,22.5429,VALID,333,VALID,0,
2011-02-08, 01:46:04,VALID,1007.88,VALID,0,VALID,103.375,VALID,0.105969,VALID,22.5234,VALID,333,VALID,0,
2011-02-08, 01:47:04,VALID,1007.88,VALID,0,VALID,103.398,VALID,0.105969,VALID,22.5429,VALID,333,VALID,0,
2011-02-08, 01:48:04,VALID,1007.83,VALID,0,VALID,103.405,VALID,0.105969,VALID,22.5039,VALID,333,VALID,0,
2011-02-08, 01:49:04,VALID,1007.82,VALID,0,VALID,103.405,VALID,0.105969,VALID,22.5039,VALID,333,VALID,0,
2011-02-08, 01:50:04,VALID,1007.78,VALID,0,VALID,103.398,VALID,0.105969,VALID,22.5056,VALID,333,VALID,0,
2011-02-08, 01:51:04,VALID,1007.79,VALID,0,VALID,103.443,VALID,0,VALID,22.465,VALID,333,VALID,0.106641,
2011-02-08, 01:52:04,VALID,1007.77,VALID,0,VALID,103.451,VALID,0.105969,VALID,22.465,VALID,333,VALID,0.167969,
2011-02-08, 01:53:04,VALID,1007.75,VALID,0,VALID,103.466,VALID,0,VALID,22.465,VALID,333,VALID,0,
2011-02-08, 01:54:04,VALID,1007.74,VALID,0,VALID,103.451,VALID,0,VALID,22.4667,VALID,333,VALID,0,
2011-02-08, 01:55:04,VALID,1007.74,VALID,0,VALID,103.481,VALID,0.105969,VALID,22.426,VALID,333,VALID,0,
2011-02-08, 01:56:04,VALID,1007.72,VALID,0,VALID,103.451,VALID,0.105969,VALID,22.426,VALID,333,VALID,0,
2011-02-08, 01:57:04,VALID,1007.74,VALID,0,VALID,103.474,VALID,0.105969,VALID,22.4065,VALID,333,VALID,0,
2011-02-08, 01:58:04,VALID,1007.75,VALID,0,VALID,103.474,VALID,0.105969,VALID,22.3676,VALID,333,VALID,0,
2011-02-08, 01:59:04,VALID,1007.72,VALID,0,VALID,103.504,VALID,0.105969,VALID,22.3887,VALID,333,VALID,0,
2011-02-08, 02:00:04,VALID,1007.71,VALID,0,VALID,103.542,VALID,0.105969,VALID,22.3481,VALID,333,VALID,0,
2011-02-08, 02:01:04,VALID,1007.68,VALID,0,VALID,103.565,VALID,0.105969,VALID,22.3286,VALID,333,VALID,0,
2011-02-08, 02:02:04,VALID,1007.66,VALID,0,VALID,103.603,VALID,0.105969,VALID,22.3481,VALID,333,VALID,0,
2011-02-08, 02:03:04,VALID,1007.64,VALID,0,VALID,103.642,VALID,0.105969,VALID,22.3481,VALID,333,VALID,0,
2011-02-08, 02:04:04,VALID,1007.6,VALID,0,VALID,103.642,VALID,0.105969,VALID,22.3286,VALID,333,VALID,0,
2011-02-08, 02:05:04,VALID,1007.58,VALID,0,VALID,103.664,VALID,0.105969,VALID,22.3481,VALID,333,VALID,0,
2011-02-08, 02:06:04,VALID,1007.57,VALID,0,VALID,103.687,VALID,0.105969,VALID,22.3286,VALID,333,VALID,0,
2011-02-08, 02:07:04,VALID,1007.54,VALID,0,VALID,103.695,VALID,0.105969,VALID,22.3091,VALID,333,VALID,0,
2011-02-08, 02:08:04,VALID,1007.55,VALID,0,VALID,103.703,VALID,0.105969,VALID,22.3091,VALID,333,VALID,0,
2011-02-08, 02:09:04,VALID,1007.55,VALID,0,VALID,103.695,VALID,0.105969,VALID,22.3091,VALID,333,VALID,0,
2011-02-08, 02:10:04,VALID,1007.54,VALID,0,VALID,103.726,VALID,0.105969,VALID,22.3091,VALID,333,VALID,0,
2011-02-08, 02:11:04,VALID,1007.51,VALID,0,VALID,103.718,VALID,0,VALID,22.3091,VALID,333,VALID,0,
2011-02-08, 02:12:04,VALID,1007.5,VALID,0,VALID,103.741,VALID,0.105969,VALID,22.3091,VALID,333,VALID,0.223828,
2011-02-08, 02:13:04,VALID,1007.51,VALID,0,VALID,103.764,VALID,0.105969,VALID,22.3286,VALID,333,VALID,0.132813,
2011-02-08, 02:14:04,VALID,1007.5,VALID,0,VALID,103.764,VALID,0,VALID,22.3303,VALID,333,VALID,0,
2011-02-08, 02:15:04,VALID,1007.47,VALID,0,VALID,103.779,VALID,0,VALID,22.3108,VALID,333,VALID,0,
2011-02-08, 02:16:04,VALID,1007.47,VALID,0,VALID,103.794,VALID,0,VALID,22.3303,VALID,333,VALID,0,
2011-02-08, 02:17:04,VALID,1007.45,VALID,0,VALID,103.771,VALID,0,VALID,22.3108,VALID,333,VALID,0,
2011-02-08, 02:18:04,VALID,1007.42,VALID,0,VALID,103.764,VALID,0,VALID,22.2914,VALID,333,VALID,0,
2011-02-08, 02:19:04,VALID,1007.44,VALID,0,VALID,103.771,VALID,0,VALID,22.2914,VALID,333,VALID,0,
2011-02-08, 02:20:04,VALID,1007.41,VALID,0,VALID,103.779,VALID,0,VALID,22.3125,VALID,333,VALID,0,
2011-02-08, 02:21:04,VALID,1007.42,VALID,0,VALID,103.787,VALID,0,VALID,22.2719,VALID,333,VALID,0,
2011-02-08, 02:22:04,VALID,1007.42,VALID,0,VALID,103.794,VALID,0,VALID,22.2524,VALID,333,VALID,0,
2011-02-08, 02:23:04,VALID,1007.42,VALID,0,VALID,103.771,VALID,0,VALID,22.2524,VALID,333,VALID,0,
2011-02-08, 02:24:04,VALID,1007.39,VALID,0,VALID,103.787,VALID,0,VALID,22.2329,VALID,333,VALID,0,
2011-02-08, 02:25:04,VALID,1007.39,VALID,0,VALID,103.787,VALID,0,VALID,22.2329,VALID,333,VALID,0,
2011-02-08, 02:26:04,VALID,1007.34,VALID,0,VALID,103.802,VALID,0,VALID,22.2329,VALID,333,VALID,0,
2011-02-08, 02:27:04,VALID,1007.35,VALID,0,VALID,103.779,VALID,0,VALID,22.2329,VALID,333,VALID,0,
2011-02-08, 02:28:04,VALID,1007.32,VALID,0,VALID,103.794,VALID,0,VALID,22.2134,VALID,333,VALID,0,
2011-02-08, 02:29:04,VALID,1007.28,VALID,0,VALID,103.809,VALID,0.105969,VALID,22.2312,VALID,333,VALID,0,
2011-02-08, 02:30:04,VALID,1007.29,VALID,0,VALID,103.817,VALID,0.105969,VALID,22.2312,VALID,333,VALID,0,
2011-02-08, 02:31:04,VALID,1007.28,VALID,0,VALID,103.809,VALID,0.105969,VALID,22.2312,VALID,333,VALID,0,
2011-02-08, 02:32:04,VALID,1007.26,VALID,0,VALID,103.809,VALID,0.105969,VALID,22.2312,VALID,333,VALID,0,
2011-02-08, 02:33:04,VALID,1007.23,VALID,0,VALID,103.84,VALID,0.105969,VALID,22.2118,VALID,333,VALID,0,
2011-02-08, 02:34:04,VALID,1007.21,VALID,0,VALID,103.84,VALID,0.105969,VALID,22.2118,VALID,333,VALID,0,
2011-02-08, 02:35:04,VALID,1007.22,VALID,0,VALID,103.87,VALID,0.105969,VALID,22.2118,VALID,333,VALID,0,
2011-02-08, 02:36:04,VALID,1007.17,VALID,0,VALID,103.832,VALID,0,VALID,22.2134,VALID,333,VALID,0,
2011-02-08, 02:37:04,VALID,1007.17,VALID,0,VALID,103.84,VALID,0.105969,VALID,22.2118,VALID,333,VALID,0,
2011-02-08, 02:38:04,VALID,1007.15,VALID,0,VALID,103.855,VALID,0,VALID,22.2118,VALID,333,VALID,0,
2011-02-08, 02:39:04,VALID,1007.14,VALID,0,VALID,103.832,VALID,0,VALID,22.1923,VALID,333,VALID,0.152734,
2011-02-08, 02:40:04,VALID,1007.12,VALID,0,VALID,103.848,VALID,0.105969,VALID,22.1728,VALID,333,VALID,0.251172,
2011-02-08, 02:41:04,VALID,1007.08,VALID,0,VALID,103.855,VALID,0.105969,VALID,22.1728,VALID,333,VALID,0.198047,
2011-02-08, 02:42:04,VALID,1007.06,VALID,0,VALID,103.87,VALID,0,VALID,22.1728,VALID,333,VALID,0.294531,
2011-02-08, 02:43:04,VALID,1007.04,VALID,0,VALID,103.855,VALID,0.105969,VALID,22.1339,VALID,333,VALID,0,
2011-02-08, 02:44:04,VALID,1007,VALID,0,VALID,103.855,VALID,0,VALID,22.1161,VALID,333,VALID,0,
2011-02-08, 02:45:04,VALID,1006.98,VALID,0,VALID,103.855,VALID,0,VALID,22.1161,VALID,333,VALID,0,
2011-02-08, 02:46:04,VALID,1006.96,VALID,0,VALID,103.87,VALID,0,VALID,22.0966,VALID,333,VALID,0,
2011-02-08, 02:47:04,VALID,1006.94,VALID,0,VALID,103.848,VALID,0,VALID,22.0771,VALID,333,VALID,0,
2011-02-08, 02:48:04,VALID,1006.92,VALID,0,VALID,103.863,VALID,0,VALID,22.0576,VALID,333,VALID,0,
2011-02-08, 02:49:04,VALID,1006.91,VALID,0,VALID,103.855,VALID,0,VALID,22.0593,VALID,333,VALID,0,
2011-02-08, 02:50:04,VALID,1006.89,VALID,0,VALID,103.855,VALID,0,VALID,22.0382,VALID,333,VALID,0,
2011-02-08, 02:51:04,VALID,1006.9,VALID,0,VALID,103.87,VALID,0,VALID,22.0398,VALID,333,VALID,0,
2011-02-08, 02:52:04,VALID,1006.89,VALID,0,VALID,103.863,VALID,0,VALID,22.0382,VALID,333,VALID,0,
2011-02-08, 02:53:04,VALID,1006.85,VALID,0,VALID,103.878,VALID,0,VALID,22.0382,VALID,333,VALID,0,
2011-02-08, 02:54:04,VALID,1006.83,VALID,0,VALID,103.901,VALID,0,VALID,22.0382,VALID,333,VALID,0,
2011-02-08, 02:55:04,VALID,1006.81,VALID,0,VALID,103.909,VALID,0,VALID,22.0382,VALID,333,VALID,0,
2011-02-08, 02:56:04,VALID,1006.78,VALID,0,VALID,103.893,VALID,0,VALID,21.9797,VALID,333,VALID,0.348828,
2011-02-08, 02:57:04,VALID,1006.75,VALID,0,VALID,103.916,VALID,0,VALID,22.0204,VALID,333,VALID,0.323438,
2011-02-08, 02:58:04,VALID,1006.74,VALID,0,VALID,103.893,VALID,0,VALID,21.9992,VALID,333,VALID,0.190625,
2011-02-08, 02:59:04,VALID,1006.73,VALID,0,VALID,103.916,VALID,0,VALID,21.9797,VALID,333,VALID,0,
2011-02-08, 03:00:04,VALID,1006.74,VALID,0,VALID,103.939,VALID,0,VALID,21.9603,VALID,333,VALID,0,
2011-02-08, 03:01:04,VALID,1006.75,VALID,0,VALID,103.909,VALID,0,VALID,21.9603,VALID,333,VALID,0,
2011-02-08, 03:02:04,VALID,1006.76,VALID,0,VALID,103.916,VALID,0,VALID,21.9603,VALID,333,VALID,0,
2011-02-08, 03:03:04,VALID,1006.75,VALID,0,VALID,103.947,VALID,0,VALID,21.9619,VALID,333,VALID,0,
2011-02-08, 03:04:04,VALID,1006.74,VALID,0,VALID,103.909,VALID,0,VALID,21.9408,VALID,333,VALID,0,
2011-02-08, 03:05:04,VALID,1006.73,VALID,0,VALID,103.947,VALID,0,VALID,21.9408,VALID,333,VALID,0.141406,
2011-02-08, 03:06:04,VALID,1006.73,VALID,0,VALID,103.931,VALID,0,VALID,21.9213,VALID,333,VALID,0.394141,
2011-02-08, 03:07:04,VALID,1006.7,VALID,0,VALID,103.954,VALID,0,VALID,21.9035,VALID,333,VALID,0.337891,
2011-02-08, 03:08:04,VALID,1006.69,VALID,0,VALID,103.931,VALID,0,VALID,21.884,VALID,333,VALID,0.291406,
2011-02-08, 03:09:04,VALID,1006.7,VALID,0,VALID,103.931,VALID,0,VALID,21.8434,VALID,333,VALID,0,
2011-02-08, 03:10:04,VALID,1006.66,VALID,0,VALID,103.962,VALID,0,VALID,21.8434,VALID,333,VALID,0,
2011-02-08, 03:11:04,VALID,1006.69,VALID,0,VALID,103.939,VALID,0,VALID,21.8239,VALID,333,VALID,0,
2011-02-08, 03:12:04,VALID,1006.71,VALID,0,VALID,103.954,VALID,0,VALID,21.8045,VALID,333,VALID,0,
2011-02-08, 03:13:04,VALID,1006.74,VALID,0,VALID,103.924,VALID,0,VALID,21.8061,VALID,333,VALID,0,
2011-02-08, 03:14:04,VALID,1006.73,VALID,0,VALID,103.939,VALID,0,VALID,21.8028,VALID,333,VALID,0,
2011-02-08, 03:15:04,VALID,1006.74,VALID,0,VALID,103.947,VALID,0.105969,VALID,21.8223,VALID,333,VALID,0,
2011-02-08, 03:16:04,VALID,1006.75,VALID,0,VALID,103.947,VALID,0.105969,VALID,21.8223,VALID,333,VALID,0,
2011-02-08, 03:17:04,VALID,1006.77,VALID,0,VALID,103.939,VALID,0,VALID,21.8223,VALID,333,VALID,0,
2011-02-08, 03:18:04,VALID,1006.79,VALID,0,VALID,103.954,VALID,0,VALID,21.8434,VALID,333,VALID,0,
2011-02-08, 03:19:04,VALID,1006.83,VALID,0,VALID,103.947,VALID,0,VALID,21.8028,VALID,333,VALID,0,
2011-02-08, 03:20:04,VALID,1006.8,VALID,0,VALID,103.954,VALID,0.105969,VALID,21.8223,VALID,333,VALID,0,
2011-02-08, 03:21:04,VALID,1006.81,VALID,0,VALID,103.947,VALID,0,VALID,21.8028,VALID,333,VALID,0,
2011-02-08, 03:22:04,VALID,1006.82,VALID,0,VALID,103.985,VALID,0,VALID,21.8028,VALID,333,VALID,0,
2011-02-08, 03:23:04,VALID,1006.84,VALID,0,VALID,103.954,VALID,0,VALID,21.7833,VALID,333,VALID,0,
2011-02-08, 03:24:04,VALID,1006.83,VALID,0,VALID,103.939,VALID,0,VALID,21.8028,VALID,333,VALID,0,
2011-02-08, 03:25:04,VALID,1006.84,VALID,0,VALID,103.954,VALID,0.105969,VALID,21.8434,VALID,333,VALID,0,
2011-02-08, 03:26:04,VALID,1006.85,VALID,0,VALID,103.97,VALID,0,VALID,21.8434,VALID,333,VALID,0,
2011-02-08, 03:27:04,VALID,1006.85,VALID,0,VALID,103.954,VALID,0,VALID,21.8028,VALID,333,VALID,0,
2011-02-08, 03:28:04,VALID,1006.86,VALID,0,VALID,103.939,VALID,0.105969,VALID,21.8223,VALID,333,VALID,0,
2011-02-08, 03:29:04,VALID,1006.84,VALID,0,VALID,103.947,VALID,0,VALID,21.8239,VALID,333,VALID,0,
2011-02-08, 03:30:04,VALID,1006.83,VALID,0,VALID,103.939,VALID,0,VALID,21.8434,VALID,333,VALID,0,
2011-02-08, 03:31:04,VALID,1006.83,VALID,0,VALID,103.939,VALID,0,VALID,21.8629,VALID,333,VALID,0,
2011-02-08, 03:32:04,VALID,1006.81,VALID,0,VALID,103.954,VALID,0,VALID,21.8824,VALID,333,VALID,0,
2011-02-08, 03:33:04,VALID,1006.85,VALID,0,VALID,103.931,VALID,0,VALID,21.9018,VALID,333,VALID,0,
2011-02-08, 03:34:04,VALID,1006.85,VALID,0,VALID,103.924,VALID,0,VALID,21.8824,VALID,333,VALID,0,
2011-02-08, 03:35:04,VALID,1006.87,VALID,0,VALID,103.909,VALID,0,VALID,21.9408,VALID,333,VALID,0,
2011-02-08, 03:36:04,VALID,1006.86,VALID,0,VALID,103.931,VALID,0,VALID,21.9603,VALID,333,VALID,0,
2011-02-08, 03:37:04,VALID,1006.86,VALID,0,VALID,103.916,VALID,0,VALID,21.9603,VALID,333,VALID,0,
2011-02-08, 03:38:04,VALID,1006.86,VALID,0,VALID,103.901,VALID,0,VALID,21.9586,VALID,333,VALID,0,
2011-02-08, 03:39:04,VALID,1006.84,VALID,0,VALID,103.947,VALID,0,VALID,21.9797,VALID,333,VALID,0,
2011-02-08, 03:40:04,VALID,1006.85,VALID,0,VALID,103.954,VALID,0,VALID,21.9408,VALID,333,VALID,0,
2011-02-08, 03:41:04,VALID,1006.88,VALID,0,VALID,103.97,VALID,0,VALID,21.9213,VALID,333,VALID,0,
2011-02-08, 03:42:05,VALID,1006.87,VALID,0,VALID,103.947,VALID,0,VALID,21.9018,VALID,333,VALID,0,
2011-02-08, 03:43:05,VALID,1006.88,VALID,0,VALID,103.954,VALID,0,VALID,21.9018,VALID,333,VALID,0,
2011-02-08, 03:44:04,VALID,1006.87,VALID,0,VALID,103.977,VALID,0,VALID,21.9018,VALID,333,VALID,0,
2011-02-08, 03:45:05,VALID,1006.89,VALID,0,VALID,103.947,VALID,0,VALID,21.9018,VALID,333,VALID,0,